When you browse on this site, cookies collect data to enhance your experience and personalize the content and advertising you see.
Visit our Privacy Policy to learn more. By continuing to use the site, you agree to this use of cookies and data.
  • In Czech Republic
  • List of Countries
  • For 7 days
  • Water Temperature
  • Satellite Maps
  • Weather Map
  • Weather Widgets
  • user-avatar
    Login

    Hourly Weather Sacapa

    Today, 13 December, Thursday

    Time Temperature Precipitation Wind Pressure Humidity
    00:00 +16°C° 0 mm 1 mps 698 mmHg 93%
    01:00 +16°C° 0 mm 1 mps 697 mmHg 93%
    02:00 +16°C° 0 mm 1 mps 697 mmHg 93%
    03:00 +16°C° 0 mm 1 mps 697 mmHg 93%
    04:00 +16°C° 0 mm 1 mps 697 mmHg 93%
    05:00 +16°C° 0 mm 1 mps 697 mmHg 93%
    06:00 +16°C° 0 mm 1 mps 697 mmHg 92%
    07:00 +18°C° 0 mm 0 mps 698 mmHg 80%
    08:00 +22°C° 0 mm 0 mps 698 mmHg 68%
    09:00 +25°C° 0 mm 0 mps 699 mmHg 56%
    10:00 +27°C° 0 mm 0 mps 699 mmHg 51%
    11:00 +31°C° 0 mm 1 mps 699 mmHg 45%
    12:00 +32°C° 0 mm 1 mps 699 mmHg 39%
    13:00 +32°C° 0 mm 1 mps 698 mmHg 40%
    14:00 +32°C° 0 mm 1 mps 697 mmHg 41%
    15:00 +31°C° 0 mm 1 mps 697 mmHg 42%
    16:00 +29°C° 0 mm 1 mps 696 mmHg 51%
    17:00 +26°C° 0 mm 1 mps 696 mmHg 61%
    18:00 +24°C° 0 mm 1 mps 696 mmHg 71%
    19:00 +23°C° 0 mm 1 mps 696 mmHg 76%
    20:00 +20°C° 0 mm 0 mps 696 mmHg 80%
    21:00 +19°C° 0 mm 0 mps 697 mmHg 85%
    22:00 +19°C° 0 mm 0 mps 697 mmHg 86%
    23:00 +18°C° 0 mm 0 mps 697 mmHg 87%

    Tomorrow, 14 December, Friday

    Time Temperature Precipitation Wind Pressure Humidity
    00:00 +18°C° 0 mm 0 mps 697 mmHg 88%
    01:00 +20°C° 0 mm 1 mps 697 mmHg 88%
    02:00 +20°C° 0 mm 1 mps 696 mmHg 88%
    03:00 +20°C° 0 mm 1 mps 696 mmHg 89%
    04:00 +19°C° 0 mm 1 mps 696 mmHg 89%
    05:00 +19°C° 0 mm 1 mps 696 mmHg 89%
    06:00 +19°C° 0 mm 1 mps 696 mmHg 89%
    07:00 +20°C° 0 mm 0 mps 697 mmHg 78%
    08:00 +23°C° 0 mm 0 mps 698 mmHg 67%
    09:00 +26°C° 0 mm 0 mps 699 mmHg 55%
    10:00 +29°C° 0 mm 1 mps 699 mmHg 51%
    11:00 +30°C° 0 mm 1 mps 699 mmHg 47%
    12:00 +32°C° 0 mm 2 mps 699 mmHg 43%
    13:00 +31°C° 0 mm 2 mps 698 mmHg 45%
    14:00 +30°C° 0 mm 2 mps 697 mmHg 48%
    15:00 +30°C° 0 mm 2 mps 697 mmHg 51%
    16:00 +28°C° 0.1 mm 2 mps 697 mmHg 60%
    17:00 +25°C° 0.1 mm 2 mps 697 mmHg 70%
    18:00 +23°C° 0.1 mm 1 mps 697 mmHg 79%
    19:00 +23°C° 0.2 mm 1 mps 698 mmHg 84%
    20:00 +22°C° 0.2 mm 1 mps 699 mmHg 88%
    21:00 +21°C° 0.2 mm 1 mps 699 mmHg 92%
    22:00 +21°C° 0.2 mm 1 mps 699 mmHg 93%
    23:00 +21°C° 0.2 mm 1 mps 699 mmHg 93%

    Day after tomorrow, 15 December, Saturday

    Time Temperature Precipitation Wind Pressure Humidity
    00:00 +21°C° 0.2 mm 1 mps 699 mmHg 94%
    01:00 +19°C° 0.4 mm 2 mps 699 mmHg 93%
    02:00 +19°C° 0.4 mm 2 mps 699 mmHg 93%
    03:00 +19°C° 0.4 mm 2 mps 699 mmHg 92%
    04:00 +19°C° 0.3 mm 2 mps 699 mmHg 92%
    05:00 +19°C° 0.3 mm 2 mps 699 mmHg 92%
    06:00 +19°C° 0.3 mm 2 mps 700 mmHg 91%
    07:00 +19°C° 0.3 mm 2 mps 700 mmHg 90%
    08:00 +19°C° 0.3 mm 2 mps 701 mmHg 89%
    09:00 +19°C° 0.3 mm 2 mps 702 mmHg 88%
    10:00 +19°C° 0.2 mm 2 mps 701 mmHg 87%
    11:00 +19°C° 0.2 mm 2 mps 701 mmHg 85%
    12:00 +19°C° 0.2 mm 3 mps 701 mmHg 84%
    13:00 +19°C° 0.1 mm 2 mps 700 mmHg 82%
    14:00 +19°C° 0.1 mm 2 mps 700 mmHg 81%
    15:00 +19°C° 0.1 mm 2 mps 699 mmHg 79%
    16:00 +18°C° 0 mm 2 mps 699 mmHg 82%
    17:00 +18°C° 0 mm 2 mps 700 mmHg 85%
    18:00 +17°C° 0 mm 2 mps 700 mmHg 89%
    19:00 +17°C° 0 mm 2 mps 700 mmHg 89%
    20:00 +17°C° 0 mm 2 mps 701 mmHg 90%
    21:00 +16°C° 0 mm 1 mps 702 mmHg 91%
    22:00 +16°C° 0 mm 1 mps 701 mmHg 91%
    23:00 +16°C° 0 mm 1 mps 701 mmHg 91%

    16 December, Sunday

    Time Temperature Precipitation Wind Pressure Humidity
    00:00 +16°C° 0 mm 1 mps 701 mmHg 92%
    01:00 +16°C° 0 mm 1 mps 700 mmHg 92%
    02:00 +16°C° 0 mm 1 mps 700 mmHg 92%
    03:00 +16°C° 0 mm 1 mps 700 mmHg 93%
    04:00 +16°C° 0 mm 1 mps 700 mmHg 92%
    05:00 +16°C° 0 mm 1 mps 700 mmHg 92%
    06:00 +16°C° 0 mm 2 mps 701 mmHg 92%
    07:00 +17°C° 0 mm 2 mps 701 mmHg 87%
    08:00 +18°C° 0 mm 2 mps 702 mmHg 82%
    09:00 +19°C° 0 mm 2 mps 702 mmHg 77%
    10:00 +20°C° 0 mm 2 mps 702 mmHg 74%
    11:00 +21°C° 0 mm 2 mps 701 mmHg 70%
    12:00 +23°C° 0 mm 2 mps 701 mmHg 67%
    13:00 +23°C° 0 mm 2 mps 700 mmHg 67%
    14:00 +23°C° 0 mm 2 mps 700 mmHg 67%
    15:00 +23°C° 0 mm 2 mps 699 mmHg 67%
    16:00 +21°C° 0 mm 2 mps 699 mmHg 73%
    17:00 +19°C° 0 mm 2 mps 700 mmHg 79%
    18:00 +18°C° 0 mm 2 mps 700 mmHg 85%
    19:00 +18°C° 0.1 mm 2 mps 700 mmHg 87%
    20:00 +19°C° 0.1 mm 1 mps 701 mmHg 89%
    21:00 +18°C° 0.1 mm 1 mps 701 mmHg 91%
    22:00 +18°C° 0.1 mm 1 mps 701 mmHg 91%
    23:00 +18°C° 0.1 mm 1 mps 701 mmHg 92%

    17 December, Monday

    Time Temperature Precipitation Wind Pressure Humidity
    00:00 +18°C° 0.1 mm 1 mps 700 mmHg 92%
    01:00 +18°C° 0 mm 1 mps 700 mmHg 92%
    02:00 +16°C° 0 mm 1 mps 700 mmHg 92%
    03:00 +16°C° 0 mm 1 mps 699 mmHg 92%
    04:00 +16°C° 0 mm 1 mps 700 mmHg 92%
    05:00 +16°C° 0 mm 1 mps 700 mmHg 91%
    06:00 +16°C° 0 mm 2 mps 700 mmHg 91%
    07:00 +17°C° 0.1 mm 2 mps 701 mmHg 89%
    08:00 +18°C° 0.1 mm 2 mps 701 mmHg 86%
    09:00 +18°C° 0.1 mm 2 mps 702 mmHg 84%
    10:00 +19°C° 0 mm 2 mps 701 mmHg 80%
    11:00 +20°C° 0 mm 2 mps 701 mmHg 75%
    12:00 +21°C° 0 mm 2 mps 700 mmHg 70%
    13:00 +21°C° 0 mm 2 mps 700 mmHg 70%
    14:00 +21°C° 0 mm 2 mps 699 mmHg 71%
    15:00 +21°C° 0 mm 2 mps 698 mmHg 71%
    16:00 +20°C° 0 mm 2 mps 699 mmHg 75%
    17:00 +19°C° 0 mm 2 mps 699 mmHg 80%
    18:00 +18°C° 0 mm 2 mps 699 mmHg 84%
    19:00 +18°C° 0.1 mm 2 mps 700 mmHg 86%
    20:00 +18°C° 0.1 mm 2 mps 700 mmHg 88%
    21:00 +17°C° 0.1 mm 2 mps 700 mmHg 90%
    22:00 +17°C° 0 mm 2 mps 700 mmHg 90%
    23:00 +18°C° 0 mm 1 mps 700 mmHg 90%

    18 December, Tuesday

    Time Temperature Precipitation Wind Pressure Humidity
    00:00 +18°C° 0 mm 1 mps 699 mmHg 90%
    01:00 +18°C° 0 mm 1 mps 699 mmHg 91%
    02:00 +16°C° 0 mm 1 mps 699 mmHg 92%
    03:00 +16°C° 0 mm 1 mps 698 mmHg 92%
    04:00 +16°C° 0 mm 1 mps 699 mmHg 92%
    05:00 +16°C° 0 mm 1 mps 699 mmHg 92%
    06:00 +16°C° 0 mm 1 mps 699 mmHg 92%
    07:00 +18°C° 0 mm 1 mps 700 mmHg 88%
    08:00 +19°C° 0 mm 1 mps 700 mmHg 84%
    09:00 +19°C° 0 mm 2 mps 700 mmHg 80%
    10:00 +21°C° 0 mm 2 mps 700 mmHg 74%
    11:00 +23°C° 0 mm 2 mps 700 mmHg 67%
    12:00 +25°C° 0 mm 2 mps 699 mmHg 61%
    13:00 +24°C° 0 mm 2 mps 699 mmHg 62%
    14:00 +24°C° 0 mm 2 mps 698 mmHg 63%
    15:00 +24°C° 0 mm 2 mps 698 mmHg 65%
    16:00 +23°C° 0 mm 2 mps 698 mmHg 71%
    17:00 +20°C° 0 mm 2 mps 698 mmHg 78%
    18:00 +20°C° 0 mm 1 mps 699 mmHg 85%
    19:00 +19°C° 0.1 mm 1 mps 699 mmHg 87%
    20:00 +19°C° 0.1 mm 1 mps 699 mmHg 90%
    21:00 +18°C° 0.1 mm 1 mps 700 mmHg 92%
    22:00 +18°C° 0 mm 1 mps 699 mmHg 93%
    23:00 +18°C° 0 mm 1 mps 699 mmHg 93%
    Show more